Location: Unspecified
(40.7945°N, 0.0000°E)
Time: 07:03:32
(UTC+00:00)

Explorer 7 - Pass Details

Date: 28 January 2021
Orbit: 484 x 677 km, 50.3° (Epoch: 28 February)

Event Time Altitude Azimuth Distance (km) Brightness Sun altitude
Rises 09:47:40 0° 296° (WNW) 2,711 9.8 22.1°
Reaches altitude 10° 09:50:01 10° 286° (WNW) 1,848 9.1 22.4°
Maximum altitude 09:53:47 32° 223° (SW) 1,011 8.5 22.8°
Drops below altitude 10° 09:57:44 10° 161° (SSE) 1,949 11.3 23.3°
Sets 10:00:16 0° 151° (SSE) 2,886 11.9 23.6°
